Location: Stara Lesna
(49.1528°N, 20.2911°E)
Time: 03:29:13
(UTC+02:00)

ATLAS 5 CENTAUR R/B - Pass Details

Date: 13 July 2020
Orbit: 534 x 1124 km, 63.4° (Epoch: 06 August)

Event Time Altitude Azimuth Distance (km) Brightness Sun altitude
Rises 03:54:33 0° 316° (NW) 3,271 5.3 -7.5°
Reaches altitude 10° 03:56:50 10° 313° (NW) 2,425 4.6 -7.2°
Maximum altitude 04:02:26 61° 234° (SW) 1,038 2.4 -6.6°
Drops below altitude 10° 04:08:55 10° 156° (SSE) 2,803 4.7 -5.8°
Sets 04:11:44 0° 153° (SSE) 3,819 5.4 -5.5°
